This is the latest recevied weather packets stored in our database for station/object K5KVN. If no packets are shown the sender has not sent any weather packets the latest 10 day(s).
| Time | Temp. | Humidity | Pressure | Rain* | Wind** | Luminosity | Snow |
|---|---|---|---|---|---|---|---|
| 1788359702 | 29.44° C | 65% | 1019.4 hPa | 0 mm | - | - | - |
| 1788359104 | 28.89° C | 66% | 1019.4 hPa | 0 mm | - | - | - |
| 1788358504 | 28.89° C | 68% | 1019.5 hPa | 0 mm | - | - | - |
| 1788357902 | 28.33° C | 70% | 1019.4 hPa | 0 mm | - | - | - |
| 1788357301 | 27.78° C | 71% | 1019.6 hPa | 0 mm | - | - | - |
| 1788356699 | 27.22° C | 73% | 1019.4 hPa | 0 mm | - | - | - |
| 1788356098 | 26.67° C | 76% | 1019.2 hPa | 0 mm | - | - | - |
| 1788355499 | 25.56° C | 81% | 1019.4 hPa | 0 mm | - | - | - |
| 1788354899 | 24.44° C | 87% | 1019.2 hPa | 0 mm | - | - | - |
| 1788354300 | 23.33° C | 89% | 1019.3 hPa | 0 mm | - | - | - |
| 1788353697 | 22.78° C | 89% | 1019.2 hPa | 0 mm | - | - | - |
| 1788353096 | 22.22° C | 89% | 1019.3 hPa | 0 mm | - | - | - |
| 1788352496 | 22.22° C | 89% | 1019.2 hPa | 0 mm | - | - | - |
| 1788351896 | 22.22° C | 89% | 1019.1 hPa | 0 mm | - | - | - |
| 1788351297 | 22.22° C | 89% | 1018.9 hPa | 0 mm | - | - | - |
| 1788350694 | 22.22° C | 88% | 1018.8 hPa | 0 mm | - | - | - |
| 1788350095 | 22.22° C | 88% | 1018.8 hPa | 0 mm | - | - | - |
| 1788349495 | 22.22° C | 87% | 1018.7 hPa | 0 mm | - | - | - |
| 1788348957 | 22.78° C | 86% | 1018.6 hPa | 0 mm | - | - | - |
| 1788348355 | 22.78° C | 86% | 1018.5 hPa | 0 mm | - | - | - |
| 1788347691 | 22.78° C | 86% | 1018.4 hPa | 0 mm | - | - | - |
| 1788347089 | 22.78° C | 86% | 1018.3 hPa | 0 mm | - | - | - |
| 1788346488 | 22.78° C | 85% | 1018.3 hPa | 0 mm | - | - | - |
| 1788345891 | 23.33° C | 84% | 1018.1 hPa | 0 mm | - | - | - |
| 1788345345 | 23.33° C | 84% | 1018.2 hPa | 0 mm | - | - | - |
* Rain latest hour (hover to see other rain measurements)
** Current wind speed in m/s (hover to see current wind gust speed)